Date,TemperatureHighF,TemperatureAvgF,TemperatureLowF,DewpointHighF,DewpointAvgF,DewpointLowF,HumidityHigh,HumidityAvg,HumidityLow,PressureMaxIn,PressureMinIn,WindSpeedMaxMPH,WindSpeedAvgMPH,GustSpeedMaxMPH,PrecipitationSumIn
2013-1-1,78.0,73.9,72.0,70.0,66.2,62.0,87,77,69,30.16,30.03,12,7,19,0.00
2013-1-2,79.0,74.1,70.0,72.0,69.8,67.0,92,86,76,30.09,30.01,7,2,10,0.00
2013-1-3,79.0,74.8,71.0,74.0,71.3,69.0,94,89,82,30.13,30.03,7,3,10,0.01
2013-1-4,80.0,74.7,72.0,75.0,72.0,70.0,95,92,81,30.20,30.10,5,2,8,0.43
2013-1-5,78.0,74.5,71.0,74.0,71.5,69.0,96,91,83,30.21,30.12,10,4,15,0.01
2013-1-6,80.0,76.3,74.0,74.0,72.4,71.0,93,88,81,30.16,30.08,11,8,17,0.00
2013-1-7,79.0,76.6,74.0,72.0,70.6,70.0,87,82,74,30.10,30.04,8,6,14,0.00
2013-1-8,80.0,77.1,74.0,74.0,72.3,70.0,90,85,79,30.16,30.04,14,7,22,0.00
2013-1-9,80.0,77.9,76.0,74.0,72.5,71.0,87,84,79,30.22,30.11,16,11,25,0.00
2013-1-10,79.0,77.0,76.0,72.0,70.4,68.0,85,80,73,30.25,30.13,15,11,26,0.00
2013-1-11,80.0,76.8,75.0,72.0,68.2,63.0,86,75,59,30.22,30.12,15,10,23,0.00
2013-1-12,79.0,76.3,75.0,71.0,69.3,68.0,84,79,73,30.15,30.06,12,8,18,0.00
2013-1-16,80.0,77.1,75.0,72.0,70.7,70.0,85,81,74,30.05,30.00,9,6,15,0.00
2013-1-17,78.0,73.6,68.0,72.0,68.9,62.0,93,85,77,30.11,30.00,14,6,27,0.30
2013-1-18,68.0,63.3,60.0,62.0,56.1,52.0,83,77,71,30.22,30.11,12,6,23,0.07
2013-1-19,74.0,68.9,64.0,67.0,62.8,56.0,89,81,73,30.20,30.09,9,4,12,0.00
2013-1-20,75.0,71.9,69.0,70.0,68.1,66.0,94,88,80,30.14,30.01,8,4,11,0.41
2013-1-21,79.0,71.9,68.0,72.0,68.0,64.0,95,88,77,30.08,30.00,10,4,17,0.41
2013-1-22,69.0,68.8,68.0,64.0,63.8,63.0,85,84,84,30.05,30.04,9,7,17,0.00
2013-1-24,73.0,70.2,67.0,63.0,61.8,60.0,83,75,63,30.24,30.18,8,5,14,0.00
2013-1-25,76.0,69.4,65.0,63.0,59.8,58.0,85,72,57,30.27,30.16,12,7,18,0.00
2013-1-26,75.0,70.2,67.0,67.0,64.0,61.0,88,81,67,30.22,30.14,12,7,20,0.00
2013-1-27,77.0,73.0,70.0,70.0,68.0,66.0,91,84,76,30.23,30.15,13,7,22,0.00
2013-1-28,78.0,75.1,73.0,69.0,67.5,66.0,82,78,73,30.28,30.19,14,10,22,0.00
2013-1-29,79.0,75.8,74.0,72.0,69.2,67.0,84,80,75,30.21,30.10,14,11,23,0.00
2013-1-30,75.0,74.2,74.0,68.0,67.3,66.0,82,79,76,30.11,30.06,14,11,21,0.00